Theta_e
298 302 302 303 304 304 310 314 317 314 314 316 316 320 322 321 323 323 322 321 320 318 320 319 316 317 323 320 321 322 322 322 324 325 321 321 321 322 323 318 320 319 317 319
297 301 304 305 304 304 310 315 317 315 315 315 316 316 321 323 323 323 322 322 322 321 320 323 318 325 323 323 323 322 323 320 317 318 319 322 322 321 320 323 319 320 316 318
298 300 301 305 304 305 311 315 319 320 319 312 315 315 320 324 323 323 322 322 322 322 320 320 321 325 323 323 321 315 322 322 318 317 319 321 323 324 322 319 317 318 318 321
300 298 298 304 304 305 311 314 316 320 322 320 315 317 320 324 325 322 321 322 322 321 320 321 322 325 324 324 317 320 320 320 321 323 324 323 322 323 322 320 320 319 319 321
298 298 298 303 303 305 310 315 316 320 321 320 320 317 322 324 323 322 322 323 321 319 322 323 322 326 325 324 321 321 321 323 323 322 321 319 318 319 319 318 319 317 318 318
298 297 298 302 303 306 308 311 314 318 320 321 320 318 322 323 322 321 320 323 323 321 324 323 325 324 323 324 322 321 321 317 316 320 316 314 311 313 317 318 318 317 316 315
298 299 298 302 303 306 307 310 314 320 320 322 318 319 320 323 322 323 322 321 322 324 321 321 320 320 321 323 322 324 319 319 313 315 312 308 313 315 314 315 314 313 312 313
298 298 299 302 302 304 305 307 314 320 313 320 318 318 322 324 323 322 325 326 323 321 324 322 322 316 314 320 319 322 322 314 317 313 315 314 315 316 317 315 315 314 314 313
298 298 301 302 301 302 305 305 307 317 322 321 317 317 322 324 322 325 326 322 321 325 324 314 322 321 320 321 319 318 316 314 311 313 315 312 316 315 315 314 315 316 314 314
299 299 302 303 302 301 304 305 307 313 323 320 319 319 323 323 324 323 324 323 322 324 312 320 316 317 321 322 320 316 313 312 311 309 310 315 319 315 315 311 313 316 314 314
301 301 302 302 301 302 303 304 306 313 319 320 322 319 321 325 323 322 322 323 320 316 320 317 316 316 316 318 322 318 316 315 311 315 317 319 315 315 312 316 315 314 313 314
299 300 300 300 300 301 303 302 305 308 313 319 322 323 324 324 322 322 320 325 322 323 321 319 315 318 312 316 316 319 318 319 316 317 315 316 313 313 313 312 312 314 314 314
299 300 300 301 301 301 302 303 309 311 314 317 321 323 320 326 324 322 322 323 323 325 324 319 317 319 309 317 316 320 319 318 316 315 316 315 313 314 315 315 315 313 310 309
300 300 302 302 301 302 303 305 308 312 314 317 323 322 320 321 325 326 325 325 326 324 323 313 312 317 321 312 317 315 317 316 317 316 316 318 316 315 314 311 310 306 304 303
301 302 302 302 303 306 307 308 308 311 313 320 321 320 321 321 323 325 326 324 324 321 314 307 314 312 315 307 310 310 316 316 312 311 318 315 313 310 309 308 306 306 304 302
301 302 303 303 304 305 309 311 310 310 310 316 317 318 320 321 322 322 323 322 322 323 319 316 317 317 313 310 309 317 315 315 315 317 313 311 308 306 305 304 303 302 301 300
303 303 303 304 305 309 310 314 313 313 311 317 314 314 317 320 320 317 320 321 321 320 320 313 314 316 317 307 312 315 313 312 312 312 311 310 308 305 302 301 300 299 298 298
304 305 305 307 308 309 311 311 315 317 318 316 314 313 315 318 313 313 316 315 315 315 314 311 309 311 305 312 313 312 312 310 310 308 308 305 303 302 302 300 299 297 296 296
306 306 307 308 311 315 316 315 316 314 316 311 310 314 317 315 312 309 312 315 313 313 309 309 310 306 313 315 311 310 311 311 308 305 304 303 302 302 300 297 297 296 295 294
308 310 314 311 314 311 314 316 312 310 311 308 307 310 314 314 306 309 310 306 313 310 312 310 307 305 307 307 307 307 308 307 304 302 302 301 301 299 299 297 295 294 294 291
314 313 309 310 312 311 306 305 308 308 306 305 306 309 312 311 311 310 306 310 308 309 310 309 311 307 307 304 304 304 304 306 305 302 301 301 300 297 295 293 292 290 289 288
314 312 311 311 311 308 308 307 304 310 310 303 308 308 311 307 310 306 309 310 306 312 310 312 310 306 304 303 303 303 303 302 301 300 298 297 296 294 293 291 290 288 288 287
310 306 304 310 304 311 311 309 310 308 304 303 304 306 305 305 307 306 308 315 312 306 311 309 304 304 302 302 302 300 299 298 296 295 294 293 292 291 290 290 290 288 286 286
304 304 306 306 308 304 303 304 303 299 299 301 303 304 305 302 306 305 310 306 306 312 312 308 304 302 301 301 300 299 297 294 293 292 290 290 289 288 288 287 287 286 285 285
300 300 303 301 299 298 298 297 299 297 298 300 305 304 306 305 307 305 306 309 310 309 307 304 301 300 300 299 296 295 293 292 292 291 289 288 287 287 286 286 285 285 284 285
297 297 301 299 301 300 298 298 299 298 297 299 301 305 307 307 307 309 310 310 307 304 301 298 298 298 297 296 295 295 294 293 292 291 290 289 287 286 285 285 284 283 283 283
298 298 295 297 298 298 298 296 297 297 300 303 303 306 305 303 308 306 303 302 301 298 297 296 297 297 295 294 294 294 293 292 291 290 289 289 288 285 285 285 285 283 282 283
Wind_Speed
41 33 42 45 40 35 35 7 7 26 40 6 4 13 12 10 17 12 11 2 3 7 6 8 9 11 2 7 9 9 10 5 4 15 15 6 4 5 5 5 5 2 4 5
42 31 38 46 44 44 32 6 5 27 31 12 11 7 14 17 20 17 6 2 2 3 3 6 8 4 4 6 5 6 2 0 2 7 6 5 3 4 4 4 3 4 5 5
43 41 25 44 46 48 27 5 8 5 8 10 18 16 17 21 13 20 17 7 6 6 4 14 7 4 2 5 4 3 4 3 6 6 7 2 3 3 5 5 4 3 5 5
34 34 40 37 46 50 26 4 7 8 13 16 13 18 14 17 17 16 7 8 9 7 4 1 5 5 4 2 2 2 4 4 1 3 5 5 4 3 6 5 6 6 8 7
38 33 40 34 46 48 30 4 8 6 4 16 16 19 21 24 20 15 17 10 10 7 5 6 7 7 5 5 1 4 1 1 2 2 6 7 4 6 7 7 6 2 3 6
39 37 37 29 45 46 8 10 8 8 7 19 17 21 22 22 15 10 11 8 5 6 3 6 4 5 6 9 8 6 5 5 3 3 4 5 6 7 7 5 4 4 4 5
37 36 39 34 43 49 17 15 5 4 8 13 23 21 22 25 23 11 9 8 8 3 10 7 8 13 11 10 7 5 5 5 3 3 3 1 8 1 5 5 5 8 8 8
40 37 39 38 41 42 35 17 4 1 3 15 17 20 24 16 16 17 3 2 7 11 6 4 4 5 5 3 4 6 4 5 2 4 4 5 7 3 2 3 4 5 7 8
37 36 38 42 40 35 34 34 21 2 2 14 22 24 20 12 7 3 2 7 8 6 3 4 4 4 6 4 3 8 6 5 4 2 4 6 6 3 5 4 2 4 8 8
40 40 38 39 39 36 29 15 20 5 3 5 9 22 21 11 5 5 5 5 5 3 3 3 3 3 7 6 9 4 3 3 5 2 2 7 6 5 2 6 6 4 5 5
38 39 38 38 34 38 31 21 24 4 3 5 5 13 8 6 7 7 7 5 5 2 4 4 3 3 5 4 7 7 6 6 3 3 3 6 6 3 6 6 3 6 4 3
31 35 36 37 38 36 39 12 22 21 2 6 25 13 5 9 10 8 5 7 9 6 4 2 4 2 2 3 3 3 1 6 5 6 6 7 3 7 6 7 6 5 6 6
32 34 36 37 38 35 38 20 9 10 3 7 6 4 10 22 24 29 5 2 6 2 4 4 3 4 4 3 4 3 1 4 4 5 2 2 3 10 9 9 10 12 12 10
30 34 34 35 31 30 31 21 22 5 2 3 4 5 6 6 16 15 11 8 6 6 4 3 3 4 3 4 4 4 5 4 6 2 2 11 10 7 11 13 13 15 16 15
32 32 31 28 28 25 24 17 25 15 2 3 3 7 10 6 10 17 17 11 7 3 3 3 3 3 4 2 3 1 3 6 4 4 2 9 5 7 12 15 13 12 13 14
28 30 28 29 24 24 15 1 27 38 15 4 3 3 5 6 11 11 7 5 3 3 4 2 2 2 4 3 3 1 6 8 4 5 9 15 13 14 14 15 13 13 13 14
25 28 29 31 29 32 9 3 3 15 19 4 2 3 5 8 7 4 4 4 3 3 3 2 3 2 4 3 4 6 7 10 9 7 13 9 6 9 13 15 17 19 19 19
26 29 32 30 26 21 17 31 6 7 2 4 4 2 4 7 2 2 3 2 3 5 2 3 3 2 2 2 5 8 9 10 9 12 13 15 15 15 12 17 15 12 10 9
34 33 31 26 9 4 8 11 8 18 8 3 3 3 3 3 3 2 4 3 3 2 2 1 4 1 2 2 10 7 8 5 12 15 15 14 14 13 12 11 9 9 8 9
38 34 5 4 11 7 4 4 4 5 4 4 2 1 1 2 1 1 2 2 3 2 2 2 3 2 4 6 7 6 5 12 15 16 10 11 12 11 11 12 10 11 11 13
4 3 3 4 8 6 4 3 4 1 4 2 2 3 2 2 3 2 1 2 1 3 3 4 1 1 3 6 7 7 10 11 10 13 11 11 14 13 12 10 13 15 15 12
5 15 8 7 5 4 6 3 2 3 3 1 2 3 2 2 1 3 1 3 2 2 2 3 3 1 10 9 6 7 10 12 14 19 17 20 18 18 17 14 14 14 14 13
9 6 5 4 5 7 3 1 2 3 3 3 3 3 1 4 3 3 3 3 1 2 2 3 1 7 7 7 7 12 18 21 21 20 22 21 19 19 19 15 15 18 17 14
5 5 6 4 3 4 4 3 3 1 2 2 3 3 2 1 3 1 4 1 2 2 3 3 3 7 6 6 9 13 13 12 12 15 18 18 18 17 17 18 18 18 17 15
5 5 5 4 1 2 1 1 2 3 2 2 2 2 2 1 3 2 3 2 2 1 2 1 4 6 6 10 10 11 11 9 10 15 15 16 16 16 17 16 17 16 15 14
4 6 3 3 3 4 3 3 2 1 1 1 2 2 3 3 2 2 3 4 2 2 2 1 5 5 8 9 10 10 14 16 15 15 15 16 16 16 17 16 15 14 12 11
4 4 3 3 3 3 3 3 3 3 3 2 2 3 1 1 3 3 3 3 2 1 1 2 5 8 10 9 10 14 18 16 17 16 14 14 17 20 17 12 11 11 12 12
Wind_Direction
234 216 215 210 205 198 188 184 198 170 154 166 200 222 214 246 254 262 266 265 202 210 197 192 188 206 286 192 149 146 200 155 146 224 229 183 183 191 181 122 264 179 145 270
230 220 208 203 200 193 177 177 162 167 164 195 213 206 228 241 255 263 264 194 213 249 129 328 193 99 313 15 89 134 155 198 48 345 349 325 222 230 232 126 92 188 131 257
225 217 216 203 199 192 183 176 179 166 216 215 193 195 210 225 250 260 255 216 262 294 232 196 195 122 32 18 91 145 106 154 151 186 218 238 342 343 295 165 116 202 207 272
208 213 224 206 199 195 192 211 198 174 192 210 198 187 201 210 226 219 235 244 208 210 234 207 166 99 111 90 223 113 115 158 276 300 324 341 267 216 286 268 212 152 234 217
206 206 220 214 201 196 207 194 188 155 172 181 203 187 211 207 220 234 227 225 211 221 188 178 200 126 154 174 153 135 120 204 83 308 326 11 347 311 298 302 308 316 270 251
204 208 217 211 201 193 198 228 282 165 184 181 189 199 198 213 210 236 220 209 174 195 190 116 85 129 144 153 145 176 132 124 93 245 351 3 344 237 235 238 273 255 294 310
201 203 215 204 202 198 207 216 285 197 182 186 199 189 201 201 224 224 203 205 173 155 101 55 30 44 54 75 40 159 126 110 100 189 35 50 241 235 111 122 48 63 71 69
199 201 206 195 201 204 207 240 272 309 206 184 193 198 195 213 223 233 159 59 166 136 72 81 74 358 38 40 74 84 110 117 105 137 184 286 321 15 81 116 51 41 70 41
202 207 198 195 201 201 206 231 258 292 199 208 184 192 194 204 188 36 58 21 317 83 97 99 142 171 180 169 95 33 57 83 116 129 145 203 234 148 40 45 73 36 62 44
204 198 192 193 192 197 206 227 239 296 278 229 193 189 196 198 128 120 106 93 326 44 108 102 124 225 168 158 159 175 49 4 150 136 178 288 252 142 107 95 224 84 67 73
180 182 188 193 197 194 204 232 239 235 287 280 238 188 174 174 141 143 159 74 273 17 96 116 185 123 229 106 167 172 161 146 190 101 98 280 186 86 132 197 101 87 60 64
184 185 189 195 196 195 201 233 232 243 294 290 318 96 76 188 165 125 164 154 203 185 100 76 92 58 39 117 207 197 123 176 177 163 210 227 134 133 142 115 104 56 65 31
184 186 191 196 200 202 197 210 210 214 285 291 250 105 42 116 140 143 129 103 224 114 150 148 136 132 128 137 244 131 85 134 108 78 279 179 129 61 73 74 79 69 65 54
185 189 192 196 200 201 202 208 221 234 283 196 247 144 45 48 108 119 127 143 103 108 76 95 123 138 177 202 199 139 199 120 151 213 125 81 47 55 88 72 66 81 66 58
190 193 194 194 193 189 187 204 230 248 181 232 215 133 38 76 96 92 116 113 107 92 74 87 181 160 97 311 75 293 171 174 144 205 105 104 94 76 85 82 73 74 83 67
196 198 192 186 184 172 159 296 253 234 223 308 41 303 17 104 108 91 98 115 77 94 110 163 52 75 106 115 166 336 103 75 95 137 92 102 101 80 77 84 79 77 81 82
186 186 187 188 181 150 171 233 355 194 187 217 28 354 347 17 55 28 25 37 61 98 90 67 129 75 82 112 144 154 100 100 88 79 114 106 136 113 99 94 90 89 86 85
175 181 180 172 150 154 203 245 245 217 153 80 94 334 11 3 13 42 334 65 52 17 97 18 98 21 64 86 111 109 105 101 86 73 85 106 106 101 100 105 106 95 93 93
162 156 137 119 174 189 209 209 88 75 86 94 83 121 185 15 28 15 16 48 62 359 97 111 83 351 108 135 130 110 118 128 110 98 97 104 106 110 107 110 104 99 94 84
133 136 164 171 178 183 222 125 38 27 16 47 99 53 156 72 121 12 78 30 143 110 245 62 84 96 75 55 78 86 104 115 117 108 111 113 112 121 111 101 94 96 93 89
184 65 53 90 54 39 36 47 69 46 43 20 194 143 163 319 115 139 86 149 29 99 243 121 167 139 152 94 70 53 57 109 112 115 123 125 120 116 110 95 95 95 91 88
140 114 85 29 26 43 70 41 339 81 162 334 112 54 45 339 107 98 36 113 60 135 181 111 167 117 115 109 100 89 97 100 100 106 102 102 102 110 106 103 101 99 99 96
85 56 57 10 338 46 63 100 78 69 21 8 41 50 50 3 41 60 90 69 44 76 129 181 168 126 118 129 119 103 102 99 96 93 96 96 94 100 106 103 117 108 96 98
62 57 54 38 36 29 22 6 36 17 359 359 66 50 92 321 45 100 91 218 117 117 152 216 128 137 134 121 119 119 107 102 99 102 103 104 104 101 107 108 114 112 102 97
60 37 54 52 89 47 317 244 67 359 298 22 61 46 80 12 86 58 116 110 139 154 168 76 129 131 123 118 111 111 109 106 107 114 115 116 117 113 108 111 111 108 108 109
54 41 43 1 48 21 356 19 24 334 275 24 67 90 66 39 98 77 51 132 73 55 35 49 119 107 103 113 112 114 116 115 121 126 127 127 129 123 121 121 112 105 104 113
43 31 9 12 44 14 358 359 338 338 31 39 27 70 118 274 73 58 21 44 23 59 57 61 98 108 116 119 127 118 123 126 125 127 130 128 136 133 122 113 142 119 97 96